Hourly Data Report for July 28, 2021

HALIFAX STANFIELD INT'L A
NOVA SCOTIA
Current Station Operator: NAVCAN

44°52'52.000" N
63°30'31.000" W
145.40 m
8202251
71395
YHZ

Download Data

Hourly Data (July 2021)
Hourly Data Report for July 28, 2021
TIME
LST
Temp Definition
°C
Dew Point Definition
°C
Rel Hum Definition
%
Precip. Amount Definition
mm

Wind Dir Definition
10's deg

Wind Spd Definition
km/h
Visibility Definition
km
Stn Press Definition
kPa
Hmdx Definition


Wind Chill Definition


Weather Definition


00:00 16.0 16.0 100   18 9 0.2 99.45     Fog
01:00 15.7 15.7 100   16 7 4.8 99.42     Fog
02:00 16.9 16.4 97   27 11 16.1 99.40     Mostly Cloudy
03:00 17.0 16.5 97   30 14 24.1 99.41     LegendNANA
04:00 16.4 16.2 99   34 9 16.1 99.39     LegendNANA
05:00 16.3 15.7 96   32 10 19.3 99.43     Cloudy
06:00 16.2 15.9 98   31 9 19.3 99.50     Rain
07:00 15.8 15.3 97   29 10 19.3 99.55     Rain
08:00 16.2 15.5 96   30 9 24.1 99.59     Rain
09:00 17.6 16.2 91   31 13 24.1 99.54     LegendNANA
10:00 18.2 17.0 93   30 13 24.1 99.54     Rain
11:00 19.0 16.0 83   31 14 24.1 99.53     Cloudy
12:00 20.6 14.4 67   32 12 24.1 99.49     LegendNANA
13:00 21.1 15.1 68   32 13 24.1 99.49 25   LegendNANA
14:00 22.3 12.4 53   34 15 24.1 99.45 25   Mostly Cloudy
15:00 22.0 11.8 52   28 14 24.1 99.44     LegendNANA
16:00 21.4 10.6 50   28 12 24.1 99.46     LegendNANA
17:00 21.1 12.0 56   27 9 24.1 99.46     Mostly Cloudy
18:00 19.9 12.1 60   29 13 24.1 99.47     LegendNANA
19:00 19.5 12.2 62   30 11 24.1 99.51     LegendNANA
20:00 17.5 12.9 74   4 9 24.1 99.55     Mainly Clear
21:00 16.8 14.7 87   9 7 24.1 99.62     LegendNANA
22:00 15.7 13.7 88   36 1 24.1 99.64     LegendNANA
23:00 15.1 13.7 91   17 5 24.1 99.63     Mainly Clear

Notes on Data Quality.

Legend

  • E = Estimated
  • M = Missing
  • NA = Not Available*
  • [empty] = Indicates an unobserved value
Date modified: